KF5FGL Weather Reports


time (UTC)temp
F
wind
direction
speed
knots
gust
knots
rain 1hr
in
rain 24hr
in
rain mn
in
humidity
%
barometer
mb
20240222103101 64 329 0.9 3.5 0.00 0.00 0.00 90 1011.8
20240222103002 65 276 0.9 2.6 0.00 0.00 0.00 90 1012.0
20240222101603 64 221 0.0 2.6 0.00 0.00 0.00 90 1010.5
20240222101502 65 203 0.9 2.6 0.00 0.00 0.00 90 1010.8
20240222100107 64 147 0.0 3.5 0.00 0.00 0.00 90 1010.3
20240222100002 65 196 0.9 3.5 0.00 0.00 0.00 90 1010.5
20240222094601 64 178 0.9 5.2 0.00 0.00 0.00 90 1010.3
20240222093102 64 147 0.9 5.2 0.00 0.00 0.00 89 1010.2
20240222091602 64 174 0.0 4.3 0.00 0.00 0.00 89 1010.4
20240222090106 64 208 0.0 2.6 0.00 0.00 0.00 89 1010.6
20240222090003 65 172 0.9 2.6 0.00 0.00 0.00 89 1010.9
20240222084616 64 198 0.9 4.3 0.00 0.00 0.00 89 1010.8
20240222084502 65 197 0.9 4.3 0.00 0.00 0.00 89 1011.2
20240222083103 64 157 0.0 3.5 0.00 0.00 0.00 89 1011.1
20240222083003 65 174 0.9 3.5 0.00 0.00 0.00 89 1011.4
20240222081601 64 194 0.0 4.3 0.00 0.00 0.00 89 1011.2
20240222081502 65 177 0.9 4.3 0.00 0.00 0.00 89 1011.6
20240222080103 64 153 0.9 7.0 0.00 0.00 0.00 89 1011.3
20240222080003 65 177 0.9 5.2 0.00 0.00 0.00 89 1011.7
20240222074602 65 168 1.7 6.1 0.00 0.00 0.00 89 1011.6
20240222074503 65 174 1.7 7.0 0.00 0.00 0.00 89 1011.9
20240222073101 64 126 0.9 9.6 0.00 0.00 0.00 89 1011.4
20240222073002 65 172 0.9 6.1 0.00 0.00 0.00 89 1011.8
20240222071601 64 212 0.0 6.1 0.00 0.00 0.00 89 1011.8
20240222071503 65 182 1.7 5.2 0.00 0.00 0.00 89 1012.1
20240222070104 64 164 1.7 9.6 0.00 0.00 0.00 90 1011.7
20240222070003 65 170 1.7 9.6 0.00 0.00 0.00 90 1012.0
20240222064601 64 129 0.0 4.3 0.00 0.00 0.00 90 1012.2
20240222064503 64 179 0.9 4.3 0.00 0.00 0.00 90 1012.4
20240222063110 64 183 0.0 7.0 0.00 0.00 0.00 90 1012.2
20240222063002 64 176 0.9 7.0 0.00 0.00 0.00 90 1012.5
20240222061503 64 182 0.9 4.3 0.00 0.00 0.00 90 1012.9
20240222060001 64 173 0.0 4.3 0.00 0.00 0.00 90 1012.6
20240222054503 64 179 0.9 6.1 0.00 0.00 0.00 90 1013.0
20240222053003 64 173 1.7 5.2 0.00 0.00 0.00 89 1013.3
20240222051503 64 189 0.9 6.1 0.00 0.00 0.00 89 1013.5
20240222050005 64 171 0.0 4.3 0.00 0.00 0.00 89 1013.3
20240222050003 64 171 0.9 4.3 0.00 0.00 0.00 89 1013.5
20240222044506 64 169 0.9 5.2 0.00 0.00 0.00 89 1013.3
20240222043003 64 171 0.9 3.5 0.00 0.00 0.00 89 1013.8
20240222041503 64 175 0.0 4.3 0.00 0.00 0.00 89 1013.3
20240222040012 64 144 0.0 3.5 0.00 0.00 0.00 89 1013.5
20240222040003 65 168 0.9 2.6 0.00 0.00 0.00 89 1013.8
20240222034511 64 167 0.0 3.5 0.00 0.00 0.00 88 1013.5
20240222034503 65 171 0.0 2.6 0.00 0.00 0.00 88 1013.7
20240222033115 65 150 0.0 4.3 0.00 0.00 0.00 88 1013.4
20240222031607 65 160 0.9 7.0 0.00 0.00 0.00 87 1012.6
20240222031503 66 149 1.7 7.0 0.00 0.00 0.00 87 1012.7
20240222030103 66 96 2.6 7.0 0.00 0.00 0.00 86 1012.7
20240222030003 66 148 1.7 7.8 0.00 0.00 0.00 86 1012.9
20240222024603 66 118 0.0 7.8 0.00 0.00 0.00 84 1012.7
20240222024503 67 142 1.7 7.8 0.00 0.00 0.00 84 1012.9
20240222023104 67 132 1.7 7.8 0.00 0.00 0.00 83 1012.2
20240222023004 67 148 1.7 7.8 0.00 0.00 0.00 83 1012.5
20240222021603 67 135 0.9 9.6 0.00 0.00 0.00 82 1012.3
20240222021503 68 142 2.6 9.6 0.00 0.00 0.00 82 1012.6
20240222020112 68 165 1.7 7.0 0.00 0.00 0.00 80 1012.3
20240222020003 68 146 2.6 7.0 0.00 0.00 0.00 80 1012.6
20240222014602 69 122 1.7 7.8 0.00 0.00 0.00 78 1012.4
20240222014503 69 141 2.6 7.8 0.00 0.00 0.00 78 1012.7
20240222013008 69 161 0.0 6.1 0.00 0.00 0.00 76 1012.7
20240222013000 70 135 1.7 5.2 0.00 0.00 0.00 76 1012.9
20240222011509 70 143 0.9 6.1 0.00 0.00 0.00 74 1012.8
20240222011500 71 132 0.9 6.1 0.00 0.00 0.00 73 1013.0
20240222010008 71 144 0.9 3.5 0.00 0.00 0.00 72 1012.9
20240222010001 72 136 1.7 3.5 0.00 0.00 0.00 72 1013.2
20240222004509 72 115 0.9 7.0 0.00 0.00 0.00 70 1013.0
20240222004500 73 123 1.7 6.1 0.00 0.00 0.00 70 1013.3
20240222003010 74 140 1.7 8.7 0.00 0.00 0.00 68 1012.8
20240222003001 74 137 1.7 8.7 0.00 0.00 0.00 68 1013.1
20240222001508 75 119 0.0 6.1 0.00 0.00 0.00 66 1013.3
20240222001500 75 147 1.7 5.2 0.00 0.00 0.00 66 1013.5
20240222000009 76 159 0.9 7.8 0.00 0.00 0.00 63 1013.1
20240222000000 76 151 1.7 7.8 0.00 0.00 0.00 63 1013.4
20240221234508 77 146 0.9 7.8 0.00 0.00 0.00 61 1013.0
20240221234500 77 159 0.9 5.2 0.00 0.00 0.00 61 1013.3
20240221233009 78 159 1.7 7.8 0.00 0.00 0.00 59 1012.8
20240221233001 78 150 2.6 7.8 0.00 0.00 0.00 59 1013.1
20240221231508 78 144 3.5 11.3 0.00 0.00 0.00 59 1012.9
20240221231501 78 150 2.6 8.7 0.00 0.00 0.00 59 1013.2
20240221230012 78 157 0.9 7.8 0.00 0.00 0.00 58 1012.9
20240221230000 79 139 2.6 7.0 0.00 0.00 0.00 58 1013.2
20240221224511 78 130 3.5 11.3 0.00 0.00 0.00 58 1013.0
20240221223008 79 109 0.9 7.0 0.00 0.00 0.00 59 1013.2
20240221223000 79 145 1.7 6.1 0.00 0.00 0.00 59 1013.5
20240221221659 79 127 2.6 7.0 0.00 0.00 0.00 60 1013.4
20240221221501 79 163 1.7 7.8 0.00 0.00 0.00 60 1013.9
20240221220010 78 222 2.6 7.8 0.00 0.00 0.00 63 1013.6
20240221220000 78 188 2.6 7.8 0.00 0.00 0.00 63 1013.9
20240221214514 77 245 1.7 7.8 0.00 0.00 0.00 66 1013.8
20240221214501 77 169 2.6 7.8 0.00 0.00 0.00 66 1014.1
20240221213008 76 181 3.5 10.4 0.00 0.00 0.00 67 1014.0
20240221213000 76 150 3.5 8.7 0.00 0.00 0.00 67 1014.3
20240221211509 76 148 2.6 9.6 0.00 0.00 0.00 68 1014.4
20240221211501 76 165 1.7 7.0 0.00 0.00 0.00 68 1014.7
20240221210010 75 123 2.6 8.7 0.00 0.00 0.00 68 1014.8
20240221210000 75 181 2.6 8.7 0.00 0.00 0.00 68 1015.1
20240221204509 74 181 0.0 8.7 0.00 0.00 0.00 70 1015.2
20240221204501 75 181 1.7 8.7 0.00 0.00 0.00 70 1015.6
20240221203008 73 194 0.9 8.7 0.00 0.00 0.00 72 1015.6
20240221203000 73 165 1.7 8.7 0.00 0.00 0.00 72 1016.0
20240221201511 72 142 1.7 6.1 0.00 0.00 0.00 73 1016.1
20240221200009 71 150 1.7 6.1 0.00 0.00 0.00 76 1016.4
20240221200000 71 177 1.7 6.1 0.00 0.00 0.00 76 1016.7
20240221194600 69 180 1.7 13.0 0.00 0.00 0.00 79 1016.8
20240221194501 70 170 3.5 8.7 0.00 0.00 0.00 79 1017.2
20240221193000 70 199 3.5 9.6 0.00 0.00 0.00 79 1017.5
20240221191602 69 147 1.7 8.7 0.00 0.00 0.00 80 1017.8
20240221191501 69 172 2.6 8.7 0.00 0.00 0.00 80 1018.1
20240221190109 69 152 1.7 7.0 0.00 0.00 0.00 80 1018.1
20240221190001 69 172 2.6 7.0 0.00 0.00 0.00 80 1018.4
20240221184600 69 131 1.7 9.6 0.00 0.00 0.00 81 1018.4
20240221184501 69 172 2.6 9.6 0.00 0.00 0.00 81 1018.8
20240221183100 68 210 1.7 8.7 0.00 0.00 0.00 82 1018.8
20240221183001 69 164 1.7 8.7 0.00 0.00 0.00 82 1019.1
20240221181601 68 197 0.9 5.2 0.00 0.00 0.00 84 1019.2
20240221181501 68 171 1.7 5.2 0.00 0.00 0.00 84 1019.6
20240221180101 67 169 1.7 8.7 0.00 0.00 0.00 85 1019.6
20240221180001 67 200 2.6 8.7 0.00 0.00 0.00 85 1019.9
20240221174600 66 210 2.6 8.7 0.00 0.00 0.00 85 1019.8
20240221174501 67 191 1.7 8.7 0.00 0.00 0.00 86 1020.0
20240221173104 66 186 0.9 8.7 0.00 0.00 0.00 86 1020.0
20240221173002 66 191 1.7 8.7 0.00 0.00 0.00 86 1020.4
20240221171604 65 164 0.9 6.1 0.00 0.00 0.00 88 1020.2
20240221171501 65 192 1.7 5.2 0.00 0.00 0.00 89 1020.5
20240221170106 64 221 0.9 5.2 0.00 0.00 0.00 89 1020.5
20240221164640 64 159 0.0 7.8 0.00 0.00 0.00 90 1020.5
20240221164501 64 162 1.7 7.0 0.00 0.00 0.00 90 1020.8
20240221163107 64 201 0.0 6.1 0.00 0.00 0.00 90 1020.6
20240221161607 63 218 1.7 6.1 0.00 0.00 0.00 90 1020.6
20240221161501 64 194 0.9 5.2 0.00 0.00 0.00 90 1020.9
20240221160003 63 208 1.7 6.1 0.00 0.00 0.00 91 1020.7
20240221154637 63 129 0.9 7.8 0.00 0.00 0.00 90 1020.8
20240221153112 63 214 0.0 6.1 0.00 0.00 0.00 90 1020.9
20240221153001 63 201 0.9 4.3 0.00 0.00 0.00 90 1021.1
20240221151502 63 189 0.9 6.1 0.00 0.00 0.00 91 1020.9
20240221150001 63 208 1.7 5.2 0.00 0.00 0.00 91 1020.7
20240221144501 62 176 0.9 7.0 0.00 0.00 0.00 91 1020.4
20240221143002 62 167 0.9 6.1 0.00 0.00 0.00 92 1020.4
20240221141516 61 196 1.7 6.1 0.00 0.00 0.00 93 1020.3
20240221140015 61 183 0.0 6.1 0.00 0.00 0.00 94 1020.3
20240221140002 61 201 0.9 6.1 0.00 0.00 0.00 94 1020.4
20240221134510 61 229 0.9 5.2 0.00 0.00 0.00 94 1020.3
20240221134501 61 189 0.9 5.2 0.00 0.00 0.00 94 1020.4
20240221133010 61 219 0.9 4.3 0.00 0.00 0.00 94 1020.1
20240221133002 61 194 0.9 4.3 0.00 0.00 0.00 94 1020.3
20240221131510 61 173 0.9 5.2 0.00 0.00 0.00 94 1020.1
20240221131502 61 168 0.9 5.2 0.00 0.00 0.00 94 1020.3
20240221130014 61 185 0.0 3.5 0.00 0.00 0.00 95 1020.1
20240221124514 61 206 0.9 5.2 0.00 0.00 0.00 95 1020.1
20240221124502 61 202 1.7 5.2 0.00 0.00 0.00 95 1020.4
20240221123010 61 207 1.7 6.1 0.00 0.00 0.00 95 1020.1
20240221123002 62 193 1.7 6.1 0.00 0.00 0.00 95 1020.2
20240221121510 61 205 1.7 4.3 0.00 0.00 0.00 95 1020.0
20240221120010 61 198 1.7 6.1 0.00 0.00 0.00 96 1020.1
20240221120002 62 205 0.9 6.1 0.00 0.00 0.00 96 1020.2
20240221114510 61 153 0.9 7.0 0.00 0.00 0.00 96 1019.9
20240221114502 62 190 1.7 6.1 0.00 0.00 0.00 96 1020.1
20240221113010 61 128 0.9 7.0 0.00 0.00 0.00 96 1019.9
20240221113002 62 192 1.7 6.1 0.00 0.00 0.00 96 1020.1
20240221111510 61 194 0.0 6.1 0.00 0.00 0.00 96 1019.8
20240221111502 62 194 0.9 6.1 0.00 0.00 0.00 96 1020.0
20240221110011 61 203 0.0 2.6 0.00 0.00 0.00 96 1019.7
20240221110002 61 187 0.0 2.6 0.00 0.00 0.00 96 1019.8
20240221104509 61 219 0.0 1.7 0.00 0.00 0.00 96 1019.8
20240221104502 61 182 0.0 3.5 0.00 0.00 0.00 96 1019.9